Tracking 19475 objects as of 18-Jan-2019
HD Live streaming from Space Station
objects crossing your sky now

DUMSAT

Track DUMSAT now!
10-day predictions
DUMSAT is classified as:


NORAD ID: 26086
Int'l Code: 2000-009A
Perigee: 576.8 km
Apogee: 601.3 km
Inclination: 64.9 °
Period: 96.3 minutes
Semi major axis: 6960 km
RCS: 1.3862 m2 (large)
Launch date: February 8, 2000
Source: Commonwealth of Independent States (former USSR) (CIS)
Launch site: TYURATAM MISSILE AND SPACE COMPLEX (TTMTR)
aabbcc
Your satellite tracking list
Your tracking list is empty




NASA's NSSDC Master Catalog

Two Line Element Set (TLE):
1 26086U 00009A   19018.13622849 -.00000117  00000-0  40080-5 0  9992
2 26086  64.8511 235.4170 0017572 272.0547  87.8556 14.95157249 33439
Source of the keplerian elements: AFSPC